Time,TemperatureF,DewpointF,PressureIn,WindDirection,WindDirectionDegrees,WindSpeedMPH,WindSpeedGustMPH,Humidity,HourlyPrecipIn,Conditions,Clouds,dailyrainin,SoftwareType,DateUTC
2015-02-01 00:03:00,14.7,-6.3,29.88,WNW,290,15.2,18.6,38,0.00,,---,0.00,VWS V14.01,2015-02-01 05:03:00,
2015-02-01 00:08:00,14.4,-6.6,29.88,WNW,287,13.9,18.1,38,0.00,,---,0.00,VWS V14.01,2015-02-01 05:08:00,
2015-02-01 00:13:00,14.4,-6.6,29.88,WNW,283,7.4,13.0,38,0.00,,---,0.00,VWS V14.01,2015-02-01 05:13:00,
2015-02-01 00:18:00,14.2,-6.8,29.88,WNW,294,13.4,15.2,38,0.00,,---,0.00,VWS V14.01,2015-02-01 05:18:00,
2015-02-01 00:23:00,14.4,-7.1,29.88,NW,304,17.7,20.6,37,0.00,,---,0.00,VWS V14.01,2015-02-01 05:23:00,
2015-02-01 00:28:00,14.4,-7.1,29.88,WNW,291,15.4,15.4,37,0.00,,---,0.00,VWS V14.01,2015-02-01 05:28:00,
2015-02-01 00:33:00,14.4,-7.1,29.88,West,262,12.5,15.9,37,0.00,,---,0.00,VWS V14.01,2015-02-01 05:33:00,
2015-02-01 00:38:00,14.0,-6.9,29.88,NW,313,11.2,12.1,38,0.00,,---,0.00,VWS V14.01,2015-02-01 05:38:00,
2015-02-01 00:43:00,14.0,-6.9,29.88,WNW,286,8.7,11.2,38,0.00,,---,0.00,VWS V14.01,2015-02-01 05:43:00,
2015-02-01 00:48:00,14.2,-6.8,29.88,WNW,297,13.4,13.4,38,0.00,,---,0.00,VWS V14.01,2015-02-01 05:48:00,
2015-02-01 00:53:00,14.0,-6.9,29.88,West,280,6.3,9.2,38,0.00,,---,0.00,VWS V14.01,2015-02-01 05:53:00,
2015-02-01 00:58:00,14.2,-7.3,29.88,West,274,15.9,21.0,37,0.00,,---,0.00,VWS V14.01,2015-02-01 05:58:00,
2015-02-01 01:03:00,14.2,-7.3,29.88,West,272,15.4,21.9,37,0.00,,---,0.00,VWS V14.01,2015-02-01 06:03:00,
2015-02-01 01:08:00,14.2,-7.3,29.88,West,281,12.1,15.2,37,0.00,,---,0.00,VWS V14.01,2015-02-01 06:08:00,
2015-02-01 01:28:00,14.0,-7.5,29.88,West,271,20.6,20.6,37,0.00,,---,0.00,VWS V14.01,2015-02-01 06:28:00,
2015-02-01 01:33:00,14.2,-7.3,29.88,West,281,15.2,15.2,37,0.00,,---,0.00,VWS V14.01,2015-02-01 06:33:00,
2015-02-01 01:38:00,14.2,-7.3,29.88,WNW,285,15.4,18.1,37,0.00,,---,0.00,VWS V14.01,2015-02-01 06:38:00,
2015-02-01 01:43:00,14.2,-7.3,29.88,WNW,283,13.0,18.6,37,0.00,,---,0.00,VWS V14.01,2015-02-01 06:43:00,
2015-02-01 01:53:00,14.2,-7.3,29.88,WNW,300,16.8,18.6,37,0.00,,---,0.00,VWS V14.01,2015-02-01 06:53:00,
2015-02-01 01:58:00,14.4,-6.6,29.88,WNW,284,19.5,19.5,38,0.00,,---,0.00,VWS V14.01,2015-02-01 06:58:00,
2015-02-01 02:03:00,14.2,-6.8,29.88,WNW,284,13.4,13.4,38,0.00,,---,0.00,VWS V14.01,2015-02-01 07:03:00,
2015-02-01 02:08:00,14.2,-6.8,29.88,WNW,291,13.9,16.8,38,0.00,,---,0.00,VWS V14.01,2015-02-01 07:08:00,
2015-02-01 02:13:00,14.4,-6.6,29.88,WNW,291,13.9,21.0,38,0.00,,---,0.00,VWS V14.01,2015-02-01 07:13:00,
2015-02-01 02:18:00,14.4,-6.6,29.88,NW,312,14.8,19.5,38,0.00,,---,0.00,VWS V14.01,2015-02-01 07:18:00,
2015-02-01 02:23:00,14.4,-6.6,29.88,WNW,290,13.4,18.1,38,0.00,,---,0.00,VWS V14.01,2015-02-01 07:23:00,
2015-02-01 02:28:00,14.4,-6.6,29.88,West,279,14.8,14.8,38,0.00,,---,0.00,VWS V14.01,2015-02-01 07:28:00,
2015-02-01 02:33:00,14.5,-6.4,29.88,WNW,284,11.6,13.4,38,0.00,,---,0.00,VWS V14.01,2015-02-01 07:33:00,
2015-02-01 02:38:00,14.5,-6.4,29.88,West,269,11.6,14.3,38,0.00,,---,0.00,VWS V14.01,2015-02-01 07:38:00,
2015-02-01 02:43:00,14.4,-6.6,29.88,WNW,291,15.2,15.2,38,0.00,,---,0.00,VWS V14.01,2015-02-01 07:43:00,
2015-02-01 02:48:00,14.5,-6.4,29.88,WNW,286,19.5,22.4,38,0.00,,---,0.00,VWS V14.01,2015-02-01 07:48:00,
2015-02-01 02:53:00,14.4,-6.6,29.88,WNW,296,18.1,18.1,38,0.00,,---,0.00,VWS V14.01,2015-02-01 07:53:00,
2015-02-01 02:58:00,14.2,-6.8,29.88,WNW,287,19.5,19.9,38,0.00,,---,0.00,VWS V14.01,2015-02-01 07:58:00,
2015-02-01 03:03:00,14.4,-6.6,29.88,WNW,286,12.5,15.2,38,0.00,,---,0.00,VWS V14.01,2015-02-01 08:03:00,
2015-02-01 03:08:00,14.4,-6.6,29.88,WNW,289,15.4,16.8,38,0.00,,---,0.00,VWS V14.01,2015-02-01 08:08:00,
2015-02-01 03:13:00,14.4,-6.1,29.88,WNW,290,16.3,16.3,39,0.00,,---,0.00,VWS V14.01,2015-02-01 08:13:00,
2015-02-01 03:18:00,14.4,-6.6,29.88,West,276,19.9,21.5,38,0.00,,---,0.00,VWS V14.01,2015-02-01 08:18:00,
2015-02-01 03:23:00,14.0,-6.4,29.88,NW,312,11.2,15.9,39,0.00,,---,0.00,VWS V14.01,2015-02-01 08:23:00,
2015-02-01 03:28:00,13.8,-6.6,29.91,West,277,12.5,13.4,39,0.00,,---,0.00,VWS V14.01,2015-02-01 08:28:00,
2015-02-01 03:33:00,13.8,-6.6,29.91,NW,313,13.0,13.0,39,0.00,,---,0.00,VWS V14.01,2015-02-01 08:33:00,
2015-02-01 03:38:00,13.6,-6.7,29.91,NW,321,11.0,12.5,39,0.00,,---,0.00,VWS V14.01,2015-02-01 08:38:00,
2015-02-01 03:43:00,14.0,-5.9,29.91,NW,314,17.7,20.1,40,0.00,,---,0.00,VWS V14.01,2015-02-01 08:43:00,
2015-02-01 03:48:00,14.0,-5.9,29.91,WNW,298,12.5,17.2,40,0.00,,---,0.00,VWS V14.01,2015-02-01 08:48:00,
2015-02-01 03:53:00,14.2,-5.7,29.91,WNW,291,15.9,19.0,40,0.00,,---,0.00,VWS V14.01,2015-02-01 08:53:00,
2015-02-01 03:58:00,14.4,-5.5,29.91,West,268,15.9,15.9,40,0.00,,---,0.00,VWS V14.01,2015-02-01 08:58:00,
2015-02-01 04:03:00,15.1,-4.9,29.91,WNW,284,16.3,26.2,40,0.00,,---,0.00,VWS V14.01,2015-02-01 09:03:00,
2015-02-01 04:08:00,14.9,-4.5,29.91,NW,312,15.4,17.7,41,0.00,,---,0.00,VWS V14.01,2015-02-01 09:08:00,
2015-02-01 04:13:00,14.9,-5.1,29.91,NW,311,14.8,22.4,40,0.00,,---,0.00,VWS V14.01,2015-02-01 09:13:00,
2015-02-01 04:17:00,15.1,-4.4,29.91,WNW,299,15.9,21.9,41,0.00,,---,0.00,VWS V14.01,2015-02-01 09:17:00,
2015-02-01 04:22:00,15.3,-4.2,29.91,WNW,284,17.2,21.5,41,0.00,,---,0.00,VWS V14.01,2015-02-01 09:22:00,
2015-02-01 04:27:00,15.3,-4.2,29.91,WNW,287,22.4,22.4,41,0.00,,---,0.00,VWS V14.01,2015-02-01 09:27:00,
2015-02-01 04:32:00,15.3,-4.2,29.91,NW,309,19.5,21.5,41,0.00,,---,0.00,VWS V14.01,2015-02-01 09:32:00,
2015-02-01 04:37:00,15.4,-3.5,29.91,West,279,15.2,26.2,42,0.00,,---,0.00,VWS V14.01,2015-02-01 09:37:00,
2015-02-01 04:42:00,15.6,-3.4,29.91,WNW,296,15.2,19.5,42,0.00,,---,0.00,VWS V14.01,2015-02-01 09:42:00,
2015-02-01 04:47:00,15.6,-2.9,29.91,WNW,293,15.4,21.0,43,0.00,,---,0.00,VWS V14.01,2015-02-01 09:47:00,
2015-02-01 04:52:00,15.6,-2.4,29.91,WNW,296,14.8,18.6,44,0.00,,---,0.00,VWS V14.01,2015-02-01 09:52:00,
2015-02-01 04:57:00,15.8,-2.2,29.91,NW,315,11.2,17.2,44,0.00,,---,0.00,VWS V14.01,2015-02-01 09:57:00,
2015-02-01 05:02:00,15.8,-2.2,29.91,WNW,291,22.8,22.8,44,0.00,,---,0.00,VWS V14.01,2015-02-01 10:02:00,
2015-02-01 05:07:00,16.0,-2.1,29.91,WNW,295,13.4,20.6,44,0.00,,---,0.00,VWS V14.01,2015-02-01 10:07:00,
2015-02-01 05:12:00,16.0,-2.1,29.94,WNW,289,14.3,21.5,44,0.00,,---,0.00,VWS V14.01,2015-02-01 10:12:00,
2015-02-01 05:17:00,15.8,-2.2,29.94,WNW,300,12.1,18.6,44,0.00,,---,0.00,VWS V14.01,2015-02-01 10:17:00,
2015-02-01 05:22:00,16.0,-1.6,29.94,West,281,13.9,17.7,45,0.00,,---,0.00,VWS V14.01,2015-02-01 10:22:00,
2015-02-01 05:27:00,16.0,-1.6,29.94,WNW,285,15.4,16.8,45,0.00,,---,0.00,VWS V14.01,2015-02-01 10:27:00,
2015-02-01 05:32:00,16.3,-1.3,29.94,WNW,282,12.5,18.1,45,0.00,,---,0.00,VWS V14.01,2015-02-01 10:32:00,
2015-02-01 05:37:00,16.5,-1.1,29.94,West,275,15.4,18.1,45,0.00,,---,0.00,VWS V14.01,2015-02-01 10:37:00,
2015-02-01 05:42:00,16.5,-1.1,29.94,WNW,296,14.3,18.1,45,0.00,,---,0.00,VWS V14.01,2015-02-01 10:42:00,
2015-02-01 05:47:00,16.7,-0.9,29.94,NW,315,12.5,14.8,45,0.00,,---,0.00,VWS V14.01,2015-02-01 10:47:00,
2015-02-01 05:52:00,16.9,-0.8,29.94,West,274,14.8,17.7,45,0.00,,---,0.00,VWS V14.01,2015-02-01 10:52:00,
2015-02-01 05:57:00,17.4,-0.3,29.94,WNW,299,13.0,18.6,45,0.00,,---,0.00,VWS V14.01,2015-02-01 10:57:00,
2015-02-01 06:02:00,18.1,0.4,29.94,WNW,303,15.4,16.8,45,0.00,,---,0.00,VWS V14.01,2015-02-01 11:02:00,
2015-02-01 06:07:00,18.5,0.2,29.94,WNW,286,18.6,19.5,44,0.00,,---,0.00,VWS V14.01,2015-02-01 11:07:00,
2015-02-01 06:12:00,18.7,0.4,29.94,WNW,302,15.9,20.1,44,0.00,,---,0.00,VWS V14.01,2015-02-01 11:12:00,
2015-02-01 06:17:00,18.5,0.2,29.94,WNW,300,19.5,21.5,44,0.00,,---,0.00,VWS V14.01,2015-02-01 11:17:00,
2015-02-01 06:22:00,18.1,-0.1,29.94,West,273,16.8,19.0,44,0.00,,---,0.00,VWS V14.01,2015-02-01 11:22:00,
2015-02-01 06:27:00,18.0,-0.3,29.97,WNW,290,15.2,17.2,44,0.00,,---,0.00,VWS V14.01,2015-02-01 11:27:00,
2015-02-01 06:32:00,17.8,-0.4,29.97,West,277,13.0,16.3,44,0.00,,---,0.00,VWS V14.01,2015-02-01 11:32:00,
2015-02-01 06:37:00,17.6,-0.1,29.97,WNW,284,12.1,16.3,45,0.00,,---,0.00,VWS V14.01,2015-02-01 11:37:00,
2015-02-01 06:42:00,17.2,-0.4,29.97,WNW,293,14.8,14.8,45,0.00,,---,0.00,VWS V14.01,2015-02-01 11:42:00,
2015-02-01 06:47:00,17.1,-0.6,29.97,West,265,11.0,12.1,45,0.00,,---,0.00,VWS V14.01,2015-02-01 11:47:00,
2015-02-01 06:52:00,16.9,-0.8,29.97,WNW,294,14.8,14.8,45,0.00,,---,0.00,VWS V14.01,2015-02-01 11:52:00,